This demonstration page uses our WeatherBlox Daily Observations layout. Learn more.

Left ArrowRight Arrow

Hourly Observations for January 28, 2021

Temp ( °F °C ) Dew Point ( °F °C ) Humidity (%) Winds ( mph kmh ) Pressure ( in mb ) Visibility ( mi km ) Precip ( " mm )
12:53 am 00:53 Clear 8 -13.3 5 -15 87 87 Calm 30.01 1016 10 16 0.00 0.00
1:53 am 01:53 Clear 6 -14.4 3 -16.1 87 87 Calm 30.01 1016 10 16 0.00 0.00
2:53 am 02:53 Clear 6 -14.4 3 -16.1 87 87 SSW 7 11 30.03 1017 10 16 0.00 0.00
3:53 am 03:53 Clear 8 -13.3 4 -15.6 83 83 NNW 3 6 30.03 1017 10 16 0.00 0.00
4:53 am 04:53 Clear 8 -13.3 5 -15 87 87 Calm 30.04 1017 10 16 0.00 0.00
5:53 am 05:53 Clear 9 -12.8 4 -15.6 80 80 Calm 30.03 1017 10 16 0.00 0.00
6:53 am 06:53 Clear 11 -11.7 7 -13.9 84 84 ENE 6 9 30.04 1017 10 16 0.00 0.00
7:53 am 07:53 Sunny 13 -10.6 10 -12.2 88 88 E 9 15 30.02 1017 10 16 0.00 0.00
8:53 am 08:53 Sunny 15 -9.4 11 -11.7 84 84 ENE 5 7 30.04 1017 10 16 0.00 0.00
9:53 am 09:53 Sunny 17 -8.3 14 -10 88 88 E 8 13 30.04 1017 10 16 0.00 0.00
10:53 am 10:53 Sunny 20 -6.7 15 -9.4 81 81 E 7 11 30.03 1017 10 16 0.00 0.00
11:53 am 11:53 Sunny 23 -5 16 -8.9 74 74 ENE 3 6 30.02 1017 10 16 0.00 0.00
12:53 pm 12:53 Sunny 28 -2.2 18 -7.8 66 66 NE 5 7 29.98 1015 10 16 0.00 0.00
1:53 pm 13:53 Sunny 30 -1.1 19 -7.2 64 64 E 5 7 29.95 1014 10 16 0.00 0.00
2:53 pm 14:53 Sunny 34 1.1 20 -6.7 56 56 ENE 9 15 29.94 1014 10 16 0.00 0.00
3:53 pm 15:53 Sunny 33 0.6 18 -7.8 54 54 NE 7 11 29.91 1013 10 16 0.00 0.00
4:53 pm 16:53 Mostly Cloudy 33 0.6 18 -7.8 54 54 NE 7 11 29.91 1013 10 16 0.00 0.00
5:53 pm 17:53 Mostly Cloudy 31 -0.6 19 -7.2 61 61 ENE 10 17 29.91 1013 10 16 0.00 0.00
6:53 pm 18:53 Partly Cloudy 29 -1.7 18 -7.8 63 63 ENE 8 13 29.89 1012 10 16 0.00 0.00
7:53 pm 19:53 Clear 20 -6.7 15 -9.4 81 81 Calm 29.88 1012 10 16 0.00 0.00
8:53 pm 20:53 Clear 18 -7.8 13 -10.6 81 81 SW 10 17 29.89 1012 10 16 0.00 0.00
9:53 pm 21:53 Mostly Clear 18 -7.8 13 -10.6 81 81 SW 7 11 29.88 1012 10 16 0.00 0.00
10:53 pm 22:53 Mostly Cloudy 16 -8.9 13 -10.6 88 88 WSW 7 11 29.88 1012 10 16 0.00 0.00
11:53 pm 23:53 Clear 15 -9.4 12 -11.1 88 88 SW 7 11 29.88 1012 10 16 0.00 0.00

Powered by AerisWeather